EW7262 Weather Reports


time (UTC)temp
C
wind
direction
speed
KPH
gust
KPH
rain 1hr
cm
rain 24hr
cm
rain mn
cm
humidity
%
barometer
mb
20260508001540 10 25 4.8 8.0 0.00 0.05 0.05 71 1007.3
20260508000039 10 26 4.8 12.9 0.00 0.05 0.05 74 1007.2
20260507234538 10 22 9.7 16.1 0.00 0.05 0.05 75 1007.2
20260507233040 9 24 11.3 20.9 0.05 0.05 0.05 77 1007.4
20260507231540 8 32 16.1 22.5 0.05 0.05 0.05 84 1007.6
20260507230036 8 360 17.7 25.7 0.05 0.05 0.05 87 1007.7
20260507224536 7 21 19.3 30.6 0.05 0.05 0.05 84 1008.1
20260507223034 8 22 20.9 37.0 0.00 0.00 0.00 77 1007.9
20260507221534 10 11 20.9 33.8 0.00 0.00 0.00 68 1007.6
20260507220032 13 316 22.5 38.6 0.00 0.00 0.00 57 1007.1
20260507214534 13 329 22.5 35.4 0.00 0.00 0.00 59 1007.1
20260507213030 13 292 17.7 33.8 0.00 0.00 0.00 62 1007.0
20260507211530 13 309 20.9 32.2 0.00 0.00 0.00 60 1007.1
20260507210039 12 321 19.3 32.2 0.00 0.00 0.00 62 1007.3
20260507204526 12 292 22.5 32.2 0.00 0.00 0.00 69 1007.5
20260507203025 11 275 19.3 32.2 0.00 0.00 0.00 68 1007.6
20260507201523 11 321 17.7 30.6 0.00 0.00 0.00 69 1007.7
20260507200024 11 273 22.5 32.2 0.00 0.00 0.00 69 1007.8
20260507194521 11 288 22.5 33.8 0.00 0.00 0.00 72 1007.9
20260507193019 10 360 22.5 33.8 0.00 0.00 0.00 79 1008.1
20260507191519 9 360 24.1 35.4 0.00 0.00 0.00 78 1008.2
20260507190017 11 269 24.1 40.2 0.00 0.00 0.00 65 1008.3
20260507184517 11 283 24.1 37.0 0.00 0.00 0.00 65 1008.3
20260507183012 12 293 24.1 35.4 0.00 0.00 0.00 56 1008.2
20260507181511 13 313 17.7 29.0 0.00 0.00 0.00 50 1007.9
20260507180009 13 304 14.5 24.1 0.00 0.00 0.00 55 1008.1
20260507174512 13 309 19.3 33.8 0.00 0.00 0.00 52 1008.1
20260507173007 13 294 14.5 30.6 0.00 0.00 0.00 52 1008.0
20260507171506 12 265 11.3 22.5 0.00 0.00 0.00 54 1008.0
20260507170004 11 298 16.1 27.4 0.00 0.00 0.00 61 1008.3
20260507164607 13 297 14.5 25.7 0.00 0.00 0.00 50 1008.4
20260507163106 14 355 8.0 19.3 0.00 0.00 0.00 38 1008.1
20260507161556 13 340 9.7 19.3 0.00 0.00 0.00 39 1008.2
20260507160054 14 51 14.5 22.5 0.00 0.00 0.00 35 1008.3
20260507154559 14 5 11.3 20.9 0.00 0.00 0.00 35 1008.2
20260507153052 14 325 14.5 30.6 0.00 0.00 0.00 33 1008.5
20260507151549 13 343 14.5 27.4 0.00 0.00 0.00 33 1008.8
20260507150047 13 331 16.1 25.7 0.00 0.00 0.00 33 1008.8
20260507144544 12 5 11.3 25.7 0.00 0.00 0.00 37 1008.8
20260507143040 12 342 11.3 20.9 0.00 0.00 0.00 36 1008.8
20260507141539 11 355 9.7 17.7 0.00 0.00 0.00 37 1008.8
20260507140032 10 32 3.2 8.0 0.00 0.00 0.00 41 1008.9
20260507134531 10 38 3.2 9.7 0.00 0.00 0.00 40 1008.9
20260507133027 9 360 4.8 9.7 0.00 0.00 0.00 41 1008.8
20260507131524 8 360 4.8 14.5 0.00 0.00 0.00 42 1009.0
20260507130032 8 360 4.8 12.9 0.00 0.00 0.00 42 1008.9
20260507124521 8 360 8.0 12.9 0.00 0.00 0.00 42 1008.6
20260507123016 8 360 9.7 16.1 0.00 0.00 0.00 42 1008.5
20260507121514 7 360 9.7 16.1 0.00 0.00 0.00 42 1008.5
20260507120019 7 360 9.7 14.5 0.00 0.00 0.00 42 1008.6
20260507114506 7 360 11.3 17.7 0.00 0.00 0.00 42 1008.4
20260507113006 6 360 9.7 16.1 0.00 0.00 0.00 43 1008.4
20260507111504 6 360 9.7 16.1 0.00 0.00 0.00 42 1008.5
20260507110004 6 360 9.7 14.5 0.00 0.00 0.00 41 1008.6
20260507104502 6 360 9.7 14.5 0.00 0.00 0.00 41 1008.7
20260507103100 6 360 8.0 14.5 0.00 0.00 0.00 40 1008.6
20260507101600 6 360 9.7 16.1 0.00 0.00 0.00 40 1008.6
20260507100059 6 360 9.7 16.1 0.00 0.00 0.00 39 1008.5
20260507094558 7 360 9.7 14.5 0.00 0.00 0.00 39 1008.6
20260507093059 6 360 9.7 14.5 0.00 0.00 0.00 39 1008.6
20260507091556 7 360 9.7 16.1 0.00 0.00 0.00 38 1008.6
20260507090055 7 360 11.3 19.3 0.00 0.00 0.00 38 1008.6
20260507084554 6 360 12.9 19.3 0.00 0.00 0.00 38 1008.6
20260507083050 6 275 11.3 19.3 0.00 0.00 0.00 38 1008.8
20260507081547 5 360 12.9 19.3 0.00 0.00 0.00 39 1008.9
20260507080046 5 270 11.3 16.1 0.00 0.00 0.00 38 1009.0
20260507074545 5 273 11.3 16.1 0.00 0.00 0.00 36 1009.2
20260507073041 6 271 8.0 17.7 0.00 0.00 0.00 35 1009.4
20260507071600 6 360 9.7 14.5 0.00 0.00 0.00 35 1009.6
20260507070035 5 360 4.8 11.3 0.00 0.00 0.00 34 1009.9
20260507064532 5 297 3.2 6.4 0.00 0.00 0.00 35 1010.1
20260507063032 5 304 1.6 4.8 0.00 0.00 0.00 34 1010.1
20260507061528 5 305 1.6 4.8 0.00 0.00 0.00 33 1010.4
20260507060023 4 305 0.0 4.8 0.00 0.00 0.00 34 1010.7
20260507054522 3 305 3.2 4.8 0.00 0.00 0.00 35 1010.8
20260507053022 3 305 3.2 6.4 0.00 0.00 0.00 37 1010.9
20260507051529 3 306 4.8 6.4 0.00 0.00 0.00 37 1011.1
20260507050022 3 307 3.2 8.0 0.00 0.00 0.00 37 1011.2
20260507044519 3 311 4.8 8.0 0.00 0.00 0.00 36 1011.3
20260507043016 4 312 4.8 6.4 0.00 0.00 0.00 35 1011.4
20260507041515 4 315 3.2 4.8 0.00 0.00 0.00 35 1011.6
20260507040013 5 316 1.6 3.2 0.00 0.00 0.00 34 1011.7
20260507034527 5 317 1.6 4.8 0.00 0.00 0.00 33 1011.8
20260507033018 5 318 0.0 4.8 0.00 0.00 0.00 32 1011.9
20260507031511 6 317 0.0 4.8 0.00 0.00 0.00 32 1011.9
20260507030009 6 318 0.0 3.2 0.00 0.00 0.00 31 1012.1
20260507024510 6 360 0.0 3.2 0.00 0.00 0.00 31 1012.0
20260507023018 6 318 1.6 4.8 0.00 0.00 0.00 31 1012.0
20260507021507 7 317 3.2 4.8 0.00 0.00 0.00 29 1012.2
20260507020007 8 317 3.2 8.0 0.00 0.00 0.00 27 1012.3
20260507014510 9 313 3.2 9.7 0.00 0.00 0.00 26 1012.1
20260507013004 10 306 3.2 6.4 0.00 0.00 0.00 24 1012.2
20260507011505 11 306 4.8 12.9 0.00 0.00 0.00 24 1012.2
20260507010112 11 319 6.4 14.5 0.00 0.00 0.00 23 1012.3
20260507004614 11 292 9.7 17.7 0.00 0.00 0.00 22 1012.3
20260507003059 11 307 9.7 19.3 0.00 0.00 0.00 23 1012.5